www.pogodaiklimat.ru

Погода и климат >> Архив погоды >> Россия >> Ленинградская область >> Озерки


ПОГОДА в Озерках

  • Прогноз погоды в Озерках
  • Монитор погоды в Озерках

АРХИВ ПОГОДЫ в Озерках

Время (UTC), дата Ветер
(напр.,м/с)
 
Видим.   Явления Облачность Т
(С)
Тd
(С)
f
(%)
Тe
(С)
Тes
(С)
Комфортность P
(гПа)
Po
(гПа)
Тmin
(С)
Tmax
(С)
R
(мм)
R24
(мм)
S
(см)
06 17.02 З 9-12
{12}
20 км ясно -0.9 -3.4 83 -9 -9 1001.5 1000.1 -1.1
09 17.02 СЗ 9-11
{13}
20 км н/о +0.5 -3.1 77 -7 -7 1004.3 1002.9
12 17.02 СЗ 3
{12}
20 км н/о +3.6 -8.1 42 +1 +1 1008.1 1006.7
15 17.02 СЗ 2
{10}
20 км н/о +1.1 -9.3 46 -2 -2 1012.2 1010.8
18 17.02 СЗ 1 20 км ясно -1.0 -10.3 49 -2 -2 1016.1 1014.7 +3.7
21 17.02 штиль 0 20 км н/о -3.0 -10.8 55 -4 -4 1018.9 1017.5
00 18.02 СЗ 1 20 км н/о -4.3 -10.7 61 -6 -6 1020.8 1019.4
03 18.02 штиль 0 20 км н/о -7.3 -10.2 80 -8 -8 1021.9 1020.5 -7.3
06 18.02 В 1 20 км 1/0
[Ci fib]
-9.3 -10.9 88 -12 -12 1023.3 1021.9 -9.4 47
09 18.02 ЮЗ 1 20 км н/о -3.4 -8.4 68 -5 -5 1023.4 1022.0
12 18.02 н/о н/о
15 18.02 Ю 1 20 км н/о -1.1 -8.2 58 -3 -3 1017.7 1016.3
18 18.02 ЮЗ 5 20 км 10/10 1020 м
[Sc diur, vesp]
-0.2 -5.8 66 -6 -6 1013.6 1012.2 -0.2
21 18.02 ЮЗ 7
{10}
20 км н/о +0.3 -2.4 82 -7 -7 1009.7 1008.3
00 19.02 ЮЗ 10-13
{13}
15 км н/о +0.6 -0.4 93 -8 -8 1007.4 1006.0
03 19.02 З 7-10
{12}
3800 м н/о +0.7 +0.7 100 -1.0 0.4
06 19.02 З 7
{11}
6000 м дымка 10/10 120 м
[St]
+0.8 +0.7 99 -6 -6 1004.4 1003.0 -0.5 46
09 19.02 З 6
{11}
1600 м н/о +1.1 +1.1 100 -6 -6 1003.5 1002.1
12 19.02 ЮЗ 3 2900 м н/о +1.3 +1.3 100
15 19.02 ЮЗ 4 2900 м н/о +0.9 +0.9 100 0.3
18 19.02 ЮЗ 6 2000 м слаб. морось {дождь} 10/10 120 м
[St]
+0.9 +0.9 100 -6 -6 994.0 992.6 +1.5 1
21 19.02 З 8-11
{11}
1700 м н/о +0.3 +0.3 100 -7 -7 992.0 990.6
00 20.02 З 7
{13}
5000 м н/о +0.7 +0.7 100 -6 -6 991.0 989.6
03 20.02 З 8-10
{10}
4100 м н/о +1.0 +1.0 100 -6 -6 989.6 988.2 +0.2 5
06 20.02 З 6
{11}
10 км дымка {снег, дождь} 10/10 90 м
[St]
+0.7 +0.7 100 -6 -6 989.0 987.6 +0.2 4 44
09 20.02 З 5 13 км н/о +0.5 +0.6 100 -6 -6 989.4 988.0
12 20.02 З 0 н/о н/о
15 20.02 СЗ 3
{12}
20 км н/о -2.2 -4.0 87 -7 -7 993.1 991.7 0.4
18 20.02 СЗ 3
{10}
20 км {ливн. осадки, снег} 10/10 660 м
[Sc]
-3.9 -6.3 83 -9 -9 997.0 995.6 +0.8 1
21 20.02 СЗ 2
{10}
2200 м н/о -4.7 -6.9 85 -9 -9 1000.6 999.2
00 21.02 СЗ 2 13 км н/о -5.6 -9.4 75 -10 -10 1005.6 1004.2
03 21.02 С 2 20 км н/о -6.0 -11.3 66 -10 -10 1010.1 1008.7 -6.0 0.4
06 21.02 СЗ 2 20 км {снег, метель} ясно -8.2 -12.4 72 -13 -12 1014.0 1012.6 -8.3 0.4 44
09 21.02 С 2 20 км н/о -6.1 -13.2 57 -10 -10 1017.3 1015.9
12 21.02 С 2 20 км н/о -4.1 -15.2 42 -8 -8 1019.8 1018.4
15 21.02 С 1 20 км н/о -5.5 -16.3 42 -7 -7 1022.6 1021.2
18 21.02 штиль 0 20 км ясно -8.5 -15.1 59 -9 -9 1025.6 1024.1 -3.9
21 21.02 СВ 1 20 км н/о -9.7 -14.5 68 -12 -12 1028.3 1026.8
00 22.02 СВ 1 20 км н/о -10.8 -14.1 77
03 22.02 н/о н/о -11.5
06 22.02 СВ 1 20 км ясно -11.6 -15.2 75 -14 -14 1035.7 1034.2 -11.7 44
09 22.02 СВ 1 20 км н/о -6.9 -15.5 50 -9 -9 1038.4 1036.9
12 22.02 СЗ 2 20 км н/о -3.7 -14.9 41 -7 -7 1039.2 1037.8
15 22.02 СЗ 2 20 км н/о -5.2 -11.4 62 -9 -9 1039.5 1038.0
18 22.02 штиль 0 20 км 3/0
[Ci fib]
-9.6 -14.8 66 -10 -10 1038.9 1037.4 -2.8
21 22.02 З 6 20 км н/о -3.6 -9.5 64 -11 -11 1036.8 1035.4
00 23.02 З 9-12
{12}
20 км н/о -2.6 -5.7 79 -11 -11 1033.9 1032.5
03 23.02 З 11-14
{14}
1000 м н/о -2.6 -2.9 98 -12 -12 1030.0 1028.6 -10.1 0.6
06 23.02 З 10-13
{14}
800 м ливневой снег {метель} 10/10 150 м
[Cb cap]
-1.3 -1.5 99 -10 -10 1026.4 1025.0 -10.1 4 49
09 23.02 З 8-10
{14}
16 км н/о -0.3 -0.5 99 -8 -8 1024.2 1022.8
12 23.02 СЗ 9-11
{11}
3900 м н/о 0.0 0.0 100 -8 -8 1024.0 1022.6
15 23.02 З 7
{10}
20 км н/о +0.3 +0.3 100 -7 -7 1023.6 1022.2 2
18 23.02 З 2 20 км {снег, метель} 10/10 180 м
[St]
+0.6 +0.5 99 -3 -3 1024.1 1022.7 +0.6 1
21 23.02 штиль 0 2100 м н/о -1.1 -1.1 100 -3 -3 1023.4 1022.0
00 24.02 Ю 1 н/о н/о -1.6 -1.6 100 -4 -4 1023.0 1021.6

 

Местоположение метеостанции Озерки (Ленинградская область, Россия): широта 60.20 долгота 29.00 высота над уровнем моря 11 м.

В архиве по умолчанию представлена погода в Озерках за последнюю неделю. Архивные данные за месяц целиком и за предыдущие месяцы, начиная с января 2011 года, Вы можете получить, выбрав интересующий диапазон дат из раскрывающегося списка и нажав кнопку "Ввод!".


*Определитесь, кто Вы:
робот инопланетянин человек

Внимание! Время в таблицах - всемирное. Для получения местного времени необходимо прибавить поправку, которая равна 3 ч.

Смотрите также архив погоды в соседних городах и на ближайших метеорологических станциях:

Погода в Рощино (Ленинградская область, Россия) (35 км)
Погода в Шепелево (Ленинградская область, Россия) (42 км)
Погода в Сосновом Бору (Ленинградская область, Россия) (43 км)
Погода в Кронштадте (город Санкт-Петербург, Россия) (49 км)
Погода в Ломоносове (город Санкт-Петербург, Россия) (53 км)
Погода в Лисьем Носу (город Санкт-Петербург, Россия) (58 км)
Погода в Выборге (Ленинградская область, Россия) (60 км)
Погода в Санкт-Петербурге (город Санкт-Петербург, Россия) (77 км)
Погода в Коивуниеми (Финляндия) (82 км)
Погода в Сосново (Ленинградская область, Россия) (82 км)

Пояснения к столбцам:

Ветер - указаны скорость ветра в м/с - средняя за 10 мин, порывы в срок и между сроками (в фигурных скобках) и направление, откуда дует ветер: С - северный, СВ - северо-восточный, В - восточный, ЮВ - юго-восточный, Ю - южный, ЮЗ - юго-западный, З - западный, СЗ - северо-западный.
Видимость - горизонтальная дальность видимости в метрах или километрах. При видимости от 1 до 10 км при отсутствии осадков обычно наблюдается дымка, при ухудшении видимости до 1 км и менее - туман. В сухую погоду видимость может ухудшаться дымом, пылью или мглою.
Явления - указаны атмосферные явления, наблюдавшиеся в срок или в последний час перед сроком; фигурными скобками обозначены явления, наблюдавшиеся между сроками (за 1-3 часа до срока); квадратными скобками обозначены град или гололедные отложения с указанием их диаметра в мм.
Облачность - указаны через наклонную черту общая и нижняя облачность в баллах и высота нижней границы облаков в метрах; квадратными скобками обозначены формы облаков: Ci - перистые, Cs - перисто-слоистые, Cc - перисто-кучевые, Ac - высококучевые, As - высокослоистые, Sc - слоисто-кучевые, Ns - слоисто-дождевые, Cu - кучевые, Cb - кучево-дождевые. Подробнее классификацию облаков см. в Атласе облаков (PDF).
T - Температура воздуха - температура, измеренная на высоте 2 м над землей.
Td - Температура точки росы - температура, при понижении до которой содержащийся в воздухе водяной пар достигнет насыщения.
f - Относительная влажность воздуха - влажноcть воздуха, измеренная на высоте 2 м над землей.
Te - Эффективная температура - температура, которую ощущает одетый по сезону человек в тени. Характеристика душности погоды. При расчете учитывается влияние влажности воздуха и скорости ветра на теплоощущения человека.
Tes - Эффективная температура на солнце - температура, которую ощущает человек, с поправкой на солнечный нагрев. Характеристика знойности погоды. Зависит от высоты солнца над горизонтом, облачности и скорости ветра. Ночью, в пасмурную погоду, а также при ветре 12 м/с и более поправка равна нулю.
P - Атмосферное давление - приведенное к уровню моря атмосферное давление.
Po - Атмосферное давление - измеренное на уровне метеостанции атмосферное давление.
Tmin - Минимальная температура - минимум температуры воздуха на высоте 2 м над землей.
Tmax - Максимальная температура - максимум температуры воздуха на высоте 2 м над землей.
R - Количество осадков - Количество выпавших осадков за период времени, мм. При наведении курсора мыши на число - период времени, за который выпало указанное количество осадков.
R24 - Количество осадков - Количество выпавших осадков за 24 часа, мм.
S - Снежный покров - Высота снежного покрова, см. При наведении курсора мыши на число - состояние снежного покрова и степень покрытия местности в баллах.